GW6315 Weather Reports


Display with metric or nautical units.
time (UTC)temp
F
wind
direction
speed
MPH
gust
MPH
rain 1hr
in
rain 24hr
in
rain mn
in
humidity
%
barometer
mb
20260510010026 76 167 3.0 4.0 0.02 0.02 0.02 90 1011.4
20260510005521 76 147 2.0 6.0 0.01 0.01 0.01 89 1011.5
20260510005019 76 31 1.0 4.0 0.00 0.00 0.00 88 1011.3
20260510004516 77 227 2.0 6.0 0.00 0.00 0.00 87 1011.0
20260510004015 77 1 0.0 6.0 0.00 0.00 0.00 85 1011.0
20260510003511 77 161 4.0 9.0 0.00 0.00 0.00 85 1011.0
20260510003006 77 148 5.0 5.0 0.00 0.00 0.00 85 1010.7
20260510002502 77 158 1.0 7.0 0.00 0.00 0.00 85 1010.6
20260510001959 77 180 4.0 4.0 0.00 0.00 0.00 86 1010.3
20260510001456 77 163 3.0 3.0 0.00 0.00 0.00 87 1009.8
20260510000954 77 42 1.0 4.0 0.00 0.00 0.00 87 1010.3
20260510000449 77 153 2.0 3.0 0.00 0.00 0.00 87 1009.8
20260509235947 77 170 0.0 3.0 0.00 0.00 0.00 87 1009.9
20260509235443 76 356 1.0 3.0 0.00 0.00 0.00 87 1009.7
20260509234940 76 356 0.0 3.0 0.00 0.00 0.00 87 1009.6
20260509234436 77 170 2.0 6.0 0.00 0.00 0.00 87 1009.4
20260509233934 77 157 4.0 5.0 0.00 0.00 0.00 87 1009.4
20260509233432 77 201 3.0 6.0 0.00 0.00 0.00 86 1009.4
20260509232927 77 159 1.0 5.0 0.00 0.00 0.00 85 1009.5
20260509232426 77 134 2.0 8.0 0.00 0.00 0.00 84 1009.2
20260509231921 78 161 2.0 5.0 0.00 0.00 0.00 84 1009.5
20260509231418 78 170 7.0 11.0 0.00 0.00 0.00 83 1009.6
20260509230916 78 149 4.0 9.0 0.00 0.00 0.00 84 1009.5
20260509230413 78 9 2.0 4.0 0.00 0.00 0.00 84 1009.1
20260509225908 77 43 2.0 2.0 0.00 0.00 0.00 84 1009.4
20260509225405 77 8 2.0 4.0 0.00 0.00 0.00 83 1009.6
20260509224901 77 62 2.0 4.0 0.00 0.00 0.00 83 1009.4
20260509224351 77 151 3.0 5.0 0.00 0.00 0.00 80 1009.4
20260509223849 78 181 4.0 6.0 0.00 0.00 0.00 78 1009.5
20260509223345 78 113 3.0 6.0 0.00 0.00 0.00 77 1009.3
20260509222842 78 181 5.0 6.0 0.00 0.00 0.00 80 1009.2
20260509222337 79 92 1.0 5.0 0.00 0.00 0.00 81 1009.0
20260509221833 78 114 1.0 4.0 0.00 0.00 0.00 83 1009.1
20260509221331 79 132 5.0 7.0 0.00 0.00 0.00 83 1009.1
20260509220830 78 111 2.0 8.0 0.00 0.00 0.00 84 1008.7
20260509220327 79 202 3.0 4.0 0.00 0.00 0.00 83 1008.6
20260509215822 80 151 3.0 10.0 0.00 0.00 0.00 82 1008.6
20260509215320 80 29 1.0 5.0 0.00 0.00 0.00 81 1008.4
20260509214816 81 22 2.0 6.0 0.00 0.00 0.00 80 1008.5
20260509214313 81 143 3.0 10.0 0.00 0.00 0.00 79 1008.7
20260509213811 82 168 2.0 3.0 0.00 0.00 0.00 79 1008.7
20260509213306 83 70 3.0 5.0 0.00 0.00 0.00 76 1008.4
20260509212804 84 36 3.0 3.0 0.00 0.00 0.00 74 1008.3
20260509212301 85 230 2.0 6.0 0.00 0.00 0.00 71 1008.0
20260509211756 88 190 2.0 6.0 0.00 0.00 0.00 65 1008.3
20260509211253 88 222 0.0 3.0 0.00 0.00 0.00 62 1008.1
20260509210749 88 339 2.0 4.0 0.00 0.00 0.00 62 1008.4
20260509210248 88 228 2.0 4.0 0.00 0.00 0.00 61 1008.5
20260509205747 88 330 2.0 3.0 0.00 0.00 0.00 63 1008.3
20260509205242 88 305 2.0 2.0 0.00 0.00 0.00 62 1008.4
20260509204738 89 270 2.0 4.0 0.00 0.00 0.00 62 1008.4
20260509204234 89 337 2.0 3.0 0.00 0.00 0.00 62 1008.4
20260509203730 88 315 1.0 2.0 0.00 0.00 0.00 63 1008.1
20260509203229 87 350 2.0 3.0 0.00 0.00 0.00 63 1008.3
20260509202724 88 324 3.0 4.0 0.00 0.00 0.00 64 1008.3
20260509202220 87 63 2.0 3.0 0.00 0.00 0.00 67 1008.4
20260509201715 87 319 2.0 3.0 0.00 0.00 0.00 66 1008.3
20260509201212 88 336 3.0 4.0 0.00 0.00 0.00 63 1008.5
20260509200708 88 3 1.0 3.0 0.00 0.00 0.00 68 1008.5
20260509200203 87 24 2.0 6.0 0.00 0.00 0.00 67 1008.9
20260509195659 87 324 2.0 3.0 0.00 0.00 0.00 68 1009.1
20260509195155 85 215 1.0 2.0 0.00 0.00 0.00 70 1008.8
20260509194654 85 199 3.0 3.0 0.00 0.00 0.00 70 1009.1
20260509194152 86 285 2.0 4.0 0.00 0.00 0.00 70 1009.1
20260509193647 86 256 2.0 4.0 0.00 0.00 0.00 70 1009.4
20260509193143 86 210 2.0 5.0 0.00 0.00 0.00 68 1009.2
20260509192640 85 232 2.0 2.0 0.00 0.00 0.00 71 1009.1
20260509192135 85 287 2.0 7.0 0.00 0.00 0.00 72 1009.2
20260509191635 85 212 2.0 3.0 0.00 0.00 0.00 75 1009.1
20260509191132 84 197 2.0 4.0 0.00 0.00 0.00 77 1009.6
20260509190629 84 42 2.0 3.0 0.00 0.00 0.00 76 1009.4
20260509190126 82 286 2.0 2.0 0.00 0.00 0.00 74 1009.4
20260509185623 83 76 0.0 4.0 0.00 0.00 0.00 77 1009.7
20260509185119 83 14 2.0 4.0 0.00 0.00 0.00 77 1009.9
20260509184618 83 336 2.0 2.0 0.00 0.00 0.00 79 1010.0
20260509184114 83 349 2.0 3.0 0.00 0.00 0.00 79 1009.7
20260509183610 83 35 2.0 2.0 0.00 0.00 0.00 80 1009.8
20260509183105 83 314 0.0 3.0 0.00 0.00 0.00 78 1009.8
20260509182602 83 324 0.0 2.0 0.00 0.00 0.00 80 1009.8
20260509182058 83 344 2.0 5.0 0.00 0.00 0.00 77 1009.7
20260509181557 83 327 1.0 3.0 0.00 0.00 0.00 77 1010.1
20260509181054 83 259 2.0 2.0 0.00 0.00 0.00 78 1010.1
20260509180550 82 275 0.0 3.0 0.00 0.00 0.00 78 1010.0
20260509180047 82 124 0.0 3.0 0.00 0.00 0.00 78 1010.3
20260509175542 82 137 0.0 2.0 0.00 0.00 0.00 78 1010.4
20260509175040 82 258 1.0 2.0 0.00 0.00 0.00 79 1010.6
20260509174536 82 198 0.0 2.0 0.00 0.00 0.00 79 1010.6
20260509174032 82 317 1.0 3.0 0.00 0.00 0.00 79 1010.6
20260509173526 82 218 0.0 2.0 0.00 0.00 0.00 80 1010.8
20260509173022 82 245 0.0 3.0 0.00 0.00 0.00 80 1010.8
20260509172520 82 200 2.0 3.0 0.00 0.00 0.00 80 1011.0
20260509172015 81 215 2.0 2.0 0.00 0.00 0.00 80 1011.0
20260509171512 81 104 0.0 2.0 0.00 0.00 0.00 82 1010.9
20260509171008 82 28 2.0 4.0 0.00 0.00 0.00 81 1010.5
20260509170504 83 337 0.0 3.0 0.00 0.00 0.00 80 1010.7
20260509165959 83 30 3.0 4.0 0.00 0.00 0.00 79 1010.7
20260509165458 82 256 2.0 3.0 0.00 0.00 0.00 78 1010.5
20260509164955 82 27 1.0 2.0 0.00 0.00 0.00 80 1010.6
20260509164450 81 179 2.0 3.0 0.00 0.00 0.00 80 1010.4
20260509163946 82 71 2.0 2.0 0.00 0.00 0.00 82 1010.7
20260509163444 81 49 0.0 2.0 0.00 0.00 0.00 82 1010.7
20260509162943 81 354 0.0 2.0 0.00 0.00 0.00 82 1010.7
20260509162443 81 58 1.0 2.0 0.00 0.00 0.00 81 1010.8
20260509161938 81 15 2.0 2.0 0.00 0.00 0.00 83 1011.0
20260509161434 81 219 3.0 4.0 0.00 0.00 0.00 84 1010.9
20260509160930 80 338 2.0 3.0 0.00 0.00 0.00 86 1010.8
20260509160425 79 308 1.0 2.0 0.00 0.00 0.00 86 1011.0
20260509155921 79 102 0.0 2.0 0.00 0.00 0.00 87 1011.0
20260509155418 79 280 0.0 3.0 0.00 0.00 0.00 87 1010.9
20260509154914 79 286 0.0 3.0 0.00 0.00 0.00 89 1011.3
20260509154411 79 154 1.0 2.0 0.00 0.00 0.00 89 1010.9
20260509153907 78 182 1.0 3.0 0.00 0.00 0.00 89 1010.8
20260509153405 78 221 2.0 4.0 0.00 0.00 0.00 89 1010.9
20260509152902 77 247 0.0 2.0 0.00 0.00 0.00 91 1011.0
20260509152357 78 187 0.0 4.0 0.00 0.00 0.00 90 1011.0
20260509151855 77 28 0.0 2.0 0.00 0.00 0.00 91 1010.9
20260509151350 77 262 2.0 4.0 0.00 0.00 0.00 92 1010.5
20260509150849 77 286 2.0 2.0 0.00 0.00 0.00 93 1010.7
20260509150347 77 287 0.0 3.0 0.00 0.00 0.00 93 1010.5
20260509145844 77 233 3.0 4.0 0.00 0.00 0.00 94 1010.7
20260509145344 76 208 3.0 3.0 0.00 0.00 0.00 95 1010.8
20260509144841 76 221 2.0 3.0 0.00 0.00 0.00 95 1010.9
20260509144338 76 170 2.0 2.0 0.00 0.00 0.00 96 1010.9
20260509143835 76 14 0.0 2.0 0.00 0.00 0.00 97 1011.1
20260509143332 76 326 2.0 3.0 0.00 0.00 0.00 97 1010.7
20260509142828 76 181 0.0 2.0 0.00 0.00 0.00 97 1010.6
20260509142325 76 355 2.0 2.0 0.00 0.00 0.00 98 1010.5
20260509141820 76 298 0.0 3.0 0.00 0.00 0.00 98 1010.7
20260509141318 76 319 3.0 4.0 0.00 0.00 0.00 98 1010.6
20260509140814 76 38 2.0 4.0 0.00 0.00 0.00 98 1010.7
20260509140311 75 47 2.0 2.0 0.00 0.00 0.00 99 1010.6
20260509135809 75 41 2.0 2.0 0.00 0.00 0.00 98 1010.7
20260509135306 75 326 2.0 3.0 0.00 0.00 0.00 99 1010.5
20260509134803 74 349 2.0 3.0 0.00 0.00 0.00 99 1010.6
20260509134301 74 1 1.0 2.0 0.00 0.00 0.00 99 1010.3
20260509133757 74 339 2.0 2.0 0.00 0.00 0.00 99 1010.4
20260509133254 74 17 2.0 3.0 0.00 0.00 0.00 99 1010.4
20260509132753 74 316 2.0 3.0 0.00 0.00 0.00 99 1010.7
20260509132251 74 319 2.0 2.0 0.00 0.00 0.00 99 1010.9
20260509131747 73 316 1.0 2.0 0.00 0.00 0.00 99 1011.0
20260509131244 73 324 3.0 3.0 0.00 0.00 0.00 99 1011.2
20260509130740 74 39 2.0 2.0 0.00 0.00 0.00 99 1010.7
20260509130236 74 29 0.0 2.0 0.00 0.00 0.00 99 1010.7
20260509125733 73 318 1.0 2.0 0.00 0.00 0.00 99 1010.7
20260509125230 73 305 0.0 2.0 0.00 0.00 0.00 99 1010.9
20260509124726 73 348 0.0 2.0 0.00 0.00 0.00 99 1010.5
20260509124223 73 348 1.0 2.0 0.00 0.00 0.00 99 1010.8
20260509123721 73 282 2.0 2.0 0.00 0.00 0.00 99 1010.8
20260509123218 73 296 2.0 2.0 0.00 0.00 0.00 98 1010.5
20260509122713 73 278 0.0 2.0 0.00 0.00 0.00 98 1010.5
20260509122211 73 9 0.0 2.0 0.00 0.00 0.00 98 1010.6
20260509121707 73 18 0.0 2.0 0.00 0.00 0.00 98 1010.6
20260509121205 73 311 1.0 2.0 0.00 0.00 0.00 98 1010.5
20260509120703 73 256 1.0 2.0 0.00 0.00 0.00 98 1010.6
20260509120201 73 7 1.0 3.0 0.00 0.00 0.00 98 1010.5
20260509115658 73 340 1.0 2.0 0.00 0.00 0.00 98 1010.6
20260509115155 73 315 0.0 2.0 0.00 0.00 0.00 98 1010.3
20260509114653 73 283 0.0 2.0 0.00 0.00 0.00 98 1010.2
20260509114152 73 131 0.0 2.0 0.00 0.00 0.00 98 1010.4
20260509113650 73 317 1.0 3.0 0.00 0.00 0.00 98 1010.6
20260509113147 73 270 0.0 2.0 0.00 0.00 0.00 98 1010.3
20260509112643 73 293 3.0 4.0 0.00 0.00 0.00 98 1010.2
20260509112141 73 296 0.0 2.0 0.00 0.00 0.00 98 1010.2
20260509111638 73 311 0.0 2.0 0.00 0.00 0.00 98 1010.5
20260509111134 73 316 2.0 2.0 0.00 0.00 0.00 98 1010.5
20260509110632 73 325 1.0 2.0 0.00 0.00 0.00 98 1010.8
20260509110129 73 331 0.0 2.0 0.00 0.00 0.00 98 1010.7
20260509105627 73 345 0.0 2.0 0.00 0.00 0.00 98 1010.9
20260509105124 73 327 0.0 2.0 0.00 0.00 0.00 98 1010.7
20260509104621 73 1 0.0 1.0 0.00 0.00 0.00 98 1010.5
20260509104117 73 306 1.0 2.0 0.00 0.00 0.00 98 1010.6
20260509103616 73 327 1.0 2.0 0.00 0.00 0.00 98 1010.4
20260509103113 73 7 2.0 2.0 0.00 0.00 0.00 98 1009.8
20260509102610 73 339 2.0 2.0 0.00 0.00 0.00 98 1009.9
20260509102107 73 21 1.0 2.0 0.00 0.00 0.00 98 1010.0
20260509101603 73 351 1.0 2.0 0.00 0.00 0.00 98 1010.0
20260509101100 73 346 1.0 2.0 0.00 0.00 0.00 98 1010.0
20260509100557 73 344 0.0 2.0 0.00 0.00 0.00 98 1009.9
20260509100055 73 29 0.0 2.0 0.00 0.00 0.00 98 1009.6
20260509095551 73 326 2.0 2.0 0.00 0.00 0.00 98 1009.9
20260509095049 73 352 0.0 2.0 0.00 0.00 0.00 98 1009.7
20260509094545 73 311 1.0 2.0 0.00 0.00 0.00 98 1009.8
20260509094042 73 313 0.0 2.0 0.00 0.00 0.00 98 1009.5
20260509093541 74 311 0.0 2.0 0.00 0.00 0.00 98 1009.3
20260509093038 74 293 1.0 2.0 0.00 0.00 0.00 98 1009.2
20260509092536 73 306 2.0 2.0 0.00 0.00 0.00 98 1009.6
20260509092034 73 323 1.0 2.0 0.00 0.00 0.00 98 1009.2
20260509091531 73 288 1.0 2.0 0.00 0.00 0.00 98 1009.2
20260509091028 74 292 0.0 2.0 0.00 0.00 0.00 98 1009.6
20260509090525 74 281 1.0 2.0 0.00 0.00 0.00 98 1009.2
20260509090023 74 210 0.0 2.0 0.00 0.00 0.00 98 1009.4
20260509085519 74 319 0.0 1.0 0.00 0.00 0.00 98 1009.3
20260509085015 74 299 1.0 2.0 0.00 0.00 0.00 98 1009.7
20260509084513 74 281 1.0 2.0 0.00 0.00 0.00 98 1009.7
20260509084010 74 283 1.0 2.0 0.00 0.00 0.00 98 1009.8
20260509083507 74 276 1.0 2.0 0.00 0.00 0.00 98 1010.0
20260509083004 74 281 1.0 3.0 0.00 0.00 0.00 98 1009.9
20260509082501 74 250 1.0 2.0 0.00 0.00 0.00 98 1010.3
20260509081958 74 281 0.0 1.0 0.00 0.00 0.00 98 1010.4
20260509081455 74 312 0.0 2.0 0.00 0.00 0.00 98 1010.7
20260509080952 74 342 1.0 2.0 0.00 0.00 0.00 98 1010.5
20260509080450 74 56 0.0 2.0 0.00 0.00 0.00 98 1010.2
20260509075948 74 1 0.0 2.0 0.00 0.00 0.00 98 1010.2
20260509075445 74 320 1.0 2.0 0.00 0.00 0.00 98 1010.4
20260509074943 74 308 1.0 2.0 0.00 0.00 0.00 98 1010.4
20260509074440 74 304 1.0 2.0 0.00 0.00 0.00 98 1010.4
20260509073936 74 274 0.0 2.0 0.00 0.00 0.00 98 1010.3
20260509073433 74 298 1.0 2.0 0.00 0.00 0.00 98 1010.3
20260509072929 74 290 0.0 2.0 0.00 0.00 0.00 98 1010.2
20260509072426 74 324 1.0 2.0 0.00 0.00 0.00 98 1010.1
20260509071922 74 301 1.0 2.0 0.00 0.00 0.00 98 1010.1
20260509071419 74 298 2.0 2.0 0.00 0.00 0.00 98 1010.1
20260509070917 74 281 0.0 2.0 0.00 0.00 0.00 98 1010.0
20260509070414 74 299 0.0 2.0 0.00 0.00 0.00 98 1010.1
20260509065909 74 283 0.0 2.0 0.00 0.00 0.00 98 1010.2
20260509065406 74 331 0.0 2.0 0.00 0.00 0.00 98 1010.4
20260509064902 74 314 1.0 2.0 0.00 0.00 0.00 98 1009.9
20260509064400 74 297 1.0 2.0 0.00 0.00 0.00 98 1010.2
20260509063857 74 317 1.0 2.0 0.00 0.00 0.00 98 1010.3
20260509063353 74 305 0.0 2.0 0.00 0.00 0.00 98 1010.4
20260509062850 74 254 2.0 2.0 0.00 0.00 0.00 98 1010.0
20260509062347 74 286 0.0 2.0 0.00 0.00 0.00 98 1010.2
20260509061844 74 287 0.0 2.0 0.00 0.00 0.00 98 1010.5
20260509061343 74 263 0.0 2.0 0.00 0.00 0.00 98 1010.6
20260509060839 74 314 0.0 2.0 0.00 0.00 0.00 98 1010.7
20260509060336 73 300 0.0 1.0 0.00 0.00 0.00 98 1011.0
20260509055831 73 324 0.0 2.0 0.00 0.00 0.00 98 1011.0
20260509055327 73 297 1.0 2.0 0.00 0.00 0.00 98 1011.0
20260509054824 73 256 0.0 2.0 0.00 0.00 0.00 98 1011.0
20260509054321 73 330 0.0 2.0 0.00 0.00 0.00 98 1010.8
20260509053819 73 314 0.0 2.0 0.00 0.00 0.00 98 1010.9
20260509053316 73 287 1.0 2.0 0.00 0.00 0.00 98 1011.0
20260509052814 73 292 0.0 2.0 0.00 0.00 0.00 98 1010.6
20260509052312 73 267 0.0 1.0 0.00 0.00 0.00 98 1010.7
20260509051809 73 347 0.0 2.0 0.00 0.00 0.00 98 1010.8
20260509051307 73 223 0.0 2.0 0.00 0.00 0.00 98 1010.8
20260509050803 73 331 0.0 2.0 0.00 0.00 0.00 98 1010.7
20260509050300 73 318 0.0 2.0 0.00 0.00 0.00 98 1010.8
20260509045757 73 320 0.0 2.0 0.00 0.82 0.82 98 1010.7
20260509045254 73 307 0.0 2.0 0.00 0.82 0.82 98 1011.0
20260509044751 73 175 0.0 1.0 0.00 0.82 0.82 98 1011.1
20260509044249 73 184 0.0 2.0 0.00 0.82 0.82 98 1011.1
20260509043745 73 188 3.0 4.0 0.00 0.82 0.82 98 1011.2
20260509043241 73 272 1.0 2.0 0.00 0.82 0.82 98 1011.0
20260509042737 73 337 0.0 2.0 0.00 0.82 0.82 98 1010.5
20260509042233 73 30 0.0 2.0 0.00 0.82 0.82 98 1011.0
20260509041731 73 29 0.0 4.0 0.00 0.82 0.82 98 1011.1
20260509041228 73 219 1.0 3.0 0.00 0.82 0.82 98 1011.1
20260509040726 73 340 1.0 2.0 0.00 0.82 0.82 98 1011.0
20260509040222 73 311 0.0 2.0 0.00 0.82 0.82 98 1010.6
20260509035719 73 259 0.0 2.0 0.00 0.82 0.82 98 1010.8
20260509035216 73 337 0.0 2.0 0.00 0.82 0.82 98 1010.9
20260509034713 73 317 1.0 3.0 0.00 0.82 0.82 98 1010.7
20260509034211 73 278 2.0 2.0 0.00 0.82 0.82 98 1010.5
20260509033708 73 168 2.0 2.0 0.00 0.82 0.82 98 1010.7
20260509033205 72 262 1.0 2.0 0.00 0.82 0.82 98 1011.1
20260509032702 72 353 0.0 2.0 0.00 0.82 0.82 98 1010.9
20260509032159 72 331 1.0 2.0 0.00 0.82 0.82 98 1010.8
20260509031656 72 344 0.0 2.0 0.00 0.82 0.82 97 1010.6
20260509031153 72 353 0.0 2.0 0.00 0.82 0.82 97 1010.8
20260509030652 72 308 1.0 2.0 0.00 0.82 0.82 97 1010.6
20260509030149 72 358 1.0 2.0 0.00 0.82 0.82 97 1010.8
20260509025644 72 336 0.0 2.0 0.00 0.82 0.82 97 1010.9
20260509025141 72 288 0.0 2.0 0.00 0.82 0.82 97 1010.8
20260509024636 72 315 0.0 2.0 0.00 0.82 0.82 97 1011.0
20260509024132 72 357 1.0 2.0 0.00 0.82 0.82 97 1010.6
20260509023631 72 35 1.0 2.0 0.00 0.82 0.82 97 1010.3
20260509023127 72 10 1.0 2.0 0.00 0.82 0.82 97 1010.7
20260509022623 72 294 0.0 1.0 0.00 0.82 0.82 97 1010.5
20260509022121 72 324 1.0 2.0 0.00 0.82 0.82 97 1010.8
20260509021618 72 312 1.0 2.0 0.00 0.82 0.82 97 1010.8
20260509021115 72 313 0.0 2.0 0.00 0.82 0.82 97 1010.5
20260509020613 72 356 1.0 2.0 0.00 0.82 0.82 97 1010.2
20260509020109 72 60 1.0 2.0 0.00 0.82 0.82 97 1010.3
20260509015609 72 187 1.0 2.0 0.00 0.82 0.82 97 1010.1
20260509015106 72 219 0.0 2.0 0.00 0.82 0.82 97 1010.2
20260509014602 72 331 0.0 2.0 0.00 0.82 0.82 97 1010.1
20260509014059 72 231 1.0 2.0 0.00 0.82 0.82 97 1009.9
20260509013556 72 357 1.0 2.0 0.00 0.82 0.82 97 1010.2
20260509013051 72 352 0.0 2.0 0.00 0.82 0.82 97 1010.2
20260509012548 72 286 0.0 2.0 0.00 0.82 0.82 97 1010.0
20260509012045 72 303 1.0 1.0 0.00 0.82 0.82 97 1010.0
20260509011543 72 28 0.0 2.0 0.00 0.82 0.82 97 1009.8
20260509011040 72 344 0.0 2.0 0.00 0.82 0.82 97 1009.6
20260509010537 72 10 1.0 2.0 0.00 0.82 0.82 97 1009.8
20260509010034 72 292 1.0 2.0 0.00 0.82 0.82 97 1010.1